sat.trackr.live / text

‹ back to catalog

STARLINK-36306

NORAD 68160 · 2026-049U

PAYLOAD ACTIVE UNKNOWN

§ Identity

Operator
Country
US
Launch date
2026-03-13
Launch site
AFWTR
Launch vehicle
Mass (kg)
RCS (m²)

Purposes: comms

External: N2YO · Heavens-Above · Gunter

§ Orbital elements

Epoch: 2026-05-25T00:34:59.883744Z

Period
93.91 min
Inclination
97.2858°
Eccentricity
0.0000839
Mean motion
15.33444690 rev/d
Perigee alt
465.0 km
Apogee alt
466.1 km
Semi-major
6,843.7 km
B*
5.8342e-4
RAAN
166.6509°
Arg perigee
56.9503°
Mean anomaly
303.1820°
Rev number
1,134

§ Raw data

STARLINK-363061 68160U 26049U   26145.02430421  .00018807  00000+0  58342-3 0  99942 68160  97.2858 166.6509 0000839  56.9503 303.1820 15.33444690 11348

JSON: /api/v1/satellites/68160 · /tle

For live sub-satellite position, see the globe view (requires WebGL).

§ Visibility from observer

Set your observer location to see the next 7 days of passes ≥ 10°. The values pass through the URL so the page stays shareable.

No JS? Fill the form by hand. The geolocation button needs JavaScript.